Location: ????????
(55.7667°N, 37.4833°E)
Time: 11:43:33
(UTC+00:00)

SeaSat 1 - Pass Details

Date: 19 May 2025
Orbit: 738 x 740 km, 108.0° (Epoch: 13 June)

Event Time Altitude Azimuth Distance (km) Brightness Sun altitude
Exits shadow 19:57:01 14° 183° (S) 1,991 4.1 -11.9°
Maximum altitude 20:00:50 37° 247° (WSW) 1,143 3.4 -12.1°
Drops below altitude 10° 20:05:23 10° 315° (NW) 2,262 6.0 -12.3°
Sets 20:07:49 0° 323° (NW) 3,190 7.3 -12.5°
